Theta_e
316 316 316 316 316 316 316 316 316 316 316 316 316 316 316 316 316 316 316 316 317 317 316 316 315 313 310 308 308 309 309 309 308 309 309 308 307 306 305 304 303 302 301 300 298 297 296 296 295 295 294 295 294 294 293 292 291 291 291 292 292 291 290 289 290 289 288 287 287
314 314 314 316 317 315 314 313 313 314 315 315 316 315 315 316 316 316 316 315 316 316 316 314 312 311 309 307 308 309 308 308 307 308 308 308 307 306 305 304 302 301 301 299 297 297 297 296 296 295 294 293 293 292 292 291 291 291 291 291 291 290 290 290 290 289 288 287 286
314 313 313 313 314 314 313 313 312 311 311 312 313 313 314 315 316 316 315 315 314 313 312 312 310 309 308 306 307 308 308 308 307 307 307 307 306 305 304 303 301 301 300 299 298 297 297 296 296 296 296 294 293 293 292 291 291 291 292 291 291 291 290 291 289 288 287 287 286
312 312 312 312 312 312 313 314 312 310 310 312 311 311 313 315 314 314 313 311 310 310 311 311 310 309 308 307 307 307 308 308 307 306 306 306 305 303 302 302 301 300 299 299 297 297 297 296 297 297 296 294 294 294 294 292 291 291 292 291 291 290 290 290 289 288 287 287 286
311 312 313 312 312 312 313 313 312 311 311 312 312 312 313 313 311 310 309 310 309 310 310 309 309 309 308 307 305 305 305 306 307 306 305 304 303 302 301 300 300 299 299 298 297 297 296 295 296 297 296 295 295 294 294 292 291 291 291 290 290 290 290 290 289 288 288 288 286
312 311 311 311 311 312 312 312 312 311 312 312 312 312 312 313 311 309 309 311 310 308 307 306 307 307 306 304 303 304 304 304 305 305 304 303 302 300 299 299 299 299 299 298 297 296 296 295 296 296 295 294 294 293 292 291 291 290 290 289 289 289 290 290 289 288 288 288 287
311 311 311 310 310 311 311 310 311 311 311 311 311 311 311 311 311 309 309 311 309 307 306 308 307 307 306 303 303 303 303 303 303 303 302 302 301 299 299 299 298 298 298 298 297 296 296 296 296 296 296 295 294 292 290 289 291 291 290 290 289 289 289 289 288 288 288 287 286
310 310 310 310 310 310 311 310 311 311 311 311 311 311 310 310 309 309 308 308 307 306 306 308 305 305 305 304 304 303 302 302 302 302 302 302 300 299 298 298 298 297 297 297 297 296 296 296 296 296 296 295 294 292 290 289 290 291 291 290 289 288 288 288 287 287 287 287 286
309 309 309 309 309 310 310 310 311 311 311 311 311 310 310 309 308 308 308 308 308 307 306 307 304 303 303 303 303 303 303 302 302 302 301 301 300 299 299 298 298 297 297 297 297 296 296 296 296 296 295 295 294 292 290 289 290 290 290 290 289 288 287 287 286 286 287 287 286
308 309 309 309 309 309 310 309 310 310 311 311 310 309 309 310 309 308 309 310 308 307 306 306 304 303 303 303 303 303 303 302 302 301 301 301 301 300 299 299 299 298 298 297 297 296 296 296 296 295 295 294 294 292 290 290 291 291 290 291 289 287 286 285 286 286 286 287 287
308 309 309 310 309 309 309 308 309 310 310 310 309 308 308 310 308 308 308 308 307 306 306 306 305 304 304 304 304 304 303 303 303 302 301 301 301 300 300 300 299 299 299 298 297 296 296 296 296 295 294 293 293 291 290 289 290 291 290 289 288 287 286 285 285 286 286 287 287
309 309 309 309 308 308 308 308 309 309 309 309 308 308 308 309 308 308 309 308 307 307 306 306 306 305 305 305 305 304 304 302 302 301 301 300 300 300 300 300 300 299 299 298 297 297 296 296 296 295 294 292 292 291 291 289 290 290 290 289 288 288 287 287 286 286 286 286 286
309 309 308 307 306 306 307 308 309 309 309 309 308 308 309 309 309 309 309 308 307 307 307 306 306 306 306 306 305 304 303 302 301 301 301 301 300 300 300 300 300 299 299 298 298 297 297 296 296 295 294 292 292 292 291 290 290 290 290 289 289 289 289 288 287 286 286 286 286
307 307 306 305 305 306 307 307 308 308 308 307 308 308 308 309 309 309 308 307 307 306 306 305 305 306 306 305 304 303 302 301 301 300 301 301 301 300 300 300 299 299 299 298 298 297 296 296 296 295 294 293 292 292 291 291 291 291 291 290 289 289 289 289 288 287 286 286 286
304 304 303 303 303 305 306 306 307 307 306 305 306 306 307 307 307 307 307 305 304 303 303 303 304 304 304 302 302 302 301 301 301 301 301 301 301 300 300 300 299 298 298 298 298 297 296 296 296 295 294 293 292 292 291 291 291 292 292 291 290 290 290 290 288 287 287 287 286
302 301 301 301 302 303 304 305 305 305 304 303 303 303 304 305 304 304 304 302 301 301 301 301 301 301 301 301 301 300 300 300 301 301 301 301 301 300 300 299 298 298 298 298 298 297 296 296 296 295 294 294 293 292 291 291 291 291 292 292 291 291 291 290 289 288 287 287 287
299 298 299 300 301 301 302 303 303 302 301 301 300 300 301 301 301 302 302 301 300 299 299 299 300 300 300 300 300 300 300 300 301 301 301 301 301 300 299 299 298 298 297 297 297 297 296 296 296 295 294 294 293 292 292 291 291 291 291 292 291 291 291 291 289 288 287 287 288
297 297 297 299 300 300 300 300 300 300 299 298 298 298 298 299 299 300 301 301 299 298 298 298 299 300 300 299 299 299 300 300 300 301 301 301 300 300 299 298 298 297 297 296 296 296 296 295 294 294 293 293 293 292 292 291 291 291 291 291 291 290 290 289 289 288 287 287 288
295 296 297 298 298 298 298 299 298 297 296 295 295 296 296 297 297 298 299 298 298 298 299 299 299 299 298 298 297 298 299 298 299 299 300 299 299 299 299 298 298 297 296 295 295 295 295 294 293 293 292 292 292 292 291 291 291 291 290 290 289 288 288 288 288 288 288 288 288
294 295 295 295 295 296 296 296 294 293 293 293 293 294 294 294 295 296 297 297 298 298 298 298 297 297 296 295 295 296 297 297 297 298 298 298 298 298 298 297 296 295 293 293 293 293 293 293 292 292 292 291 291 290 289 289 289 289 288 288 288 287 287 287 287 287 288 288 288
292 292 292 292 293 293 292 291 291 291 291 291 292 292 292 292 294 295 296 297 297 296 296 296 295 295 294 294 294 294 294 296 295 295 296 297 297 297 296 296 294 292 291 290 291 291 291 291 291 291 290 290 289 288 287 287 286 286 286 286 286 286 286 287 287 287 287 288 288
289 289 289 290 290 290 289 289 289 289 289 289 289 290 290 291 291 291 292 293 293 293 293 292 292 292 292 292 292 292 292 293 291 292 293 295 296 295 294 293 292 290 288 289 289 289 289 289 289 289 288 288 287 286 286 286 285 285 284 285 285 285 285 286 286 286 287 287 287
287 287 288 289 289 290 290 289 289 289 289 289 288 288 289 288 288 288 289 290 291 291 290 290 289 289 289 289 289 289 290 290 289 289 290 291 292 292 291 291 290 288 287 287 288 287 287 287 287 286 286 286 285 285 285 285 285 284 283 283 283 284 284 284 285 285 286 286 287
287 287 288 288 289 289 289 289 289 288 288 287 287 287 287 287 286 287 287 287 288 287 287 287 286 286 286 286 286 287 288 288 288 287 287 287 288 289 289 289 288 288 287 287 288 288 288 287 286 285 284 284 284 284 284 284 284 283 283 282 283 283 283 283 284 284 285 286 286
287 288 289 288 288 288 288 288 287 287 286 285 285 285 286 286 286 286 286 286 285 285 285 285 284 284 284 284 284 285 285 286 286 286 286 286 287 287 288 287 287 287 287 288 293 295 294 293 288 286 284 284 284 284 283 283 282 282 283 283 283 283 282 282 283 283 284 285 286
288 288 288 287 287 287 287 286 286 285 285 285 285 285 285 285 285 285 285 284 283 283 283 283 284 285 285 283 283 283 283 283 284 285 286 286 286 286 287 287 287 286 287 291 295 298 298 298 295 291 286 283 284 283 283 282 281 282 282 283 283 283 283 283 283 284 285 286 286
288 287 286 286 286 286 285 284 285 285 285 285 284 284 284 284 284 284 284 283 282 282 282 282 283 285 286 282 283 282 282 282 283 284 285 285 286 286 286 287 286 286 287 292 297 299 299 300 299 296 291 284 283 283 283 282 281 281 282 282 283 283 284 284 284 285 286 287 287
287 286 286 286 286 285 284 284 284 284 284 284 284 284 283 283 283 283 283 282 282 282 282 281 282 283 282 281 281 281 281 281 282 283 284 285 286 286 286 286 286 286 289 294 297 299 300 300 300 299 295 288 284 283 282 282 282 282 282 282 282 283 284 284 285 285 286 287 287
286 286 286 286 285 284 284 284 284 283 283 283 283 283 283 283 283 282 282 282 282 281 281 280 282 281 280 280 280 279 279 280 282 283 284 284 285 285 285 285 285 287 291 296 297 298 299 300 300 300 298 294 286 283 282 282 282 282 282 282 283 283 284 284 285 286 287 287 287
285 285 286 285 284 283 283 282 282 282 282 282 282 282 283 282 282 281 281 281 281 280 280 280 280 280 280 279 279 279 279 279 280 282 283 284 284 284 285 286 285 287 291 296 297 298 299 300 300 300 300 298 290 284 281 281 282 282 283 283 284 284 285 285 286 287 287 287 287
284 285 285 285 284 283 282 281 281 281 282 282 282 282 282 281 280 280 279 279 280 281 281 280 279 279 279 278 278 278 278 278 279 280 281 283 285 285 284 283 282 285 290 296 297 298 299 300 300 300 300 300 292 285 282 282 282 282 283 284 284 285 285 285 286 286 286 286 286
284 285 285 284 283 282 281 280 281 281 281 282 282 281 281 280 279 278 278 279 280 280 280 280 280 279 279 278 278 278 278 278 279 279 280 281 281 281 281 281 282 284 289 296 297 298 299 300 300 300 301 301 294 287 283 282 282 282 283 284 284 285 285 286 286 286 286 286 286
283 284 284 283 282 281 281 280 281 281 281 281 281 280 280 279 278 278 278 280 280 279 279 279 280 280 279 279 279 278 278 279 280 281 282 281 280 280 280 281 281 285 291 296 297 298 299 300 300 301 301 301 295 288 284 283 283 283 283 283 284 284 285 285 286 286 286 286 286
283 284 283 282 282 281 281 281 281 281 281 281 280 280 279 279 279 279 280 281 279 278 277 277 278 278 278 277 278 278 279 281 279 278 277 278 278 279 280 279 279 285 293 296 297 298 299 300 300 300 300 301 295 289 285 284 284 284 284 285 285 285 285 286 286 287 287 287 287
283 283 283 281 281 281 281 281 281 281 281 281 280 279 279 278 278 279 280 282 280 278 277 276 276 276 277 277 277 278 279 279 277 277 277 277 278 280 281 279 279 286 293 296 297 298 299 299 299 299 299 299 293 288 285 285 285 286 286 286 287 287 287 287 287 288 288 288 288
282 283 282 281 281 281 281 281 281 281 281 281 280 279 279 278 277 278 280 283 281 279 277 277 277 277 277 277 278 279 279 277 277 277 278 279 279 279 279 278 279 285 292 295 296 297 298 298 298 299 298 295 290 287 286 286 286 286 286 287 288 288 288 288 288 288 288 288 288
281 282 282 282 281 281 281 281 282 281 281 280 279 279 278 278 278 278 279 282 279 278 278 277 278 278 277 277 277 278 277 277 277 278 279 281 280 279 279 279 279 283 289 295 296 297 297 298 298 298 296 292 287 286 286 286 286 286 286 286 287 286 286 286 286 286 286 286 287
281 282 282 282 281 281 281 281 281 281 280 279 278 278 277 277 278 278 280 282 279 278 278 277 277 277 276 277 277 277 277 278 279 279 279 279 279 280 280 280 280 283 288 295 297 297 297 297 298 297 295 290 286 286 286 286 286 285 286 286 285 285 284 283 283 283 284 284 288
280 281 282 282 281 281 281 281 280 280 279 278 278 278 277 277 278 278 279 280 277 277 277 277 277 277 278 279 279 278 278 279 280 280 280 279 281 283 284 281 281 284 289 296 297 297 297 297 297 296 294 290 287 286 286 285 284 284 284 284 283 283 282 281 280 281 282 282 288
280 281 281 281 281 281 280 280 279 278 278 278 278 278 278 278 278 279 279 277 276 276 277 277 277 278 280 282 280 279 279 279 279 280 281 281 283 286 286 282 282 284 288 294 296 296 297 297 296 295 293 288 286 284 284 283 282 282 282 282 281 281 281 279 279 279 279 279 283
280 280 281 281 281 280 280 280 279 278 278 278 278 278 279 279 278 277 277 277 277 277 278 278 278 279 281 282 281 280 279 279 279 279 280 282 283 285 285 283 282 283 285 291 295 296 296 296 296 295 293 288 284 283 282 281 280 280 279 278 278 278 278 277 277 277 277 277 277
Wind_Speed
7 6 6 6 6 5 5 5 5 5 5 5 5 5 5 5 5 5 5 5 5 5 5 5 5 5 5 6 7 8 9 9 9 10 10 11 11 10 10 9 9 8 8 8 7 7 6 7 6 5 4 4 5 5 5 4 5 5 5 6 5 5 5 6 6 6 5 5 3
7 6 6 6 6 5 4 4 4 4 5 5 5 5 5 5 5 5 5 6 5 5 5 5 5 5 6 7 8 8 9 9 10 10 10 11 10 10 9 9 9 8 8 8 8 7 6 7 6 5 4 4 4 5 5 4 5 5 6 7 6 5 5 6 6 6 5 4 3
7 6 6 6 6 5 5 5 5 5 5 5 5 5 5 5 5 5 5 5 5 5 5 4 5 6 7 7 7 8 8 9 9 10 10 10 9 9 9 8 8 8 8 8 8 7 7 7 7 6 5 5 5 5 5 4 5 6 7 8 6 4 4 5 5 4 4 3 3
7 6 6 6 7 7 7 6 6 6 6 5 5 5 5 5 5 5 4 4 5 4 5 5 5 6 6 7 7 8 8 9 9 9 9 9 8 8 8 8 8 8 8 8 8 8 8 8 7 6 6 6 7 7 6 5 5 6 6 6 5 4 5 4 4 4 3 3 3
7 6 6 7 8 8 7 7 7 7 6 5 5 5 5 5 4 4 4 4 5 5 5 6 5 5 6 6 7 8 8 8 9 9 9 8 8 8 7 8 8 8 8 8 8 8 8 8 6 5 5 6 6 6 6 6 6 6 5 4 4 4 4 4 4 4 4 3 3
6 6 6 6 8 7 7 6 8 7 6 5 6 6 6 5 5 5 5 6 6 6 6 6 5 5 5 6 7 7 8 7 8 8 8 8 7 7 7 8 8 8 7 7 8 8 8 7 5 5 5 5 5 5 5 6 6 6 5 4 4 4 4 5 4 4 4 4 3
7 7 7 7 8 7 7 6 7 7 6 6 7 8 8 7 6 7 7 7 5 5 5 5 5 6 6 7 7 7 7 7 7 8 8 8 7 7 7 8 7 7 7 7 7 7 7 7 5 5 5 5 4 4 5 5 6 6 6 5 4 4 4 4 4 4 4 5 5
6 6 7 7 8 8 8 8 7 7 7 6 8 9 9 8 8 8 7 6 5 5 5 5 6 7 7 7 7 7 7 7 7 8 8 8 7 7 7 7 7 7 7 7 7 7 7 6 5 5 5 5 4 4 5 6 6 6 6 6 4 3 3 3 4 4 5 6 7
5 5 6 7 7 8 8 8 8 8 8 7 8 9 9 9 9 8 7 6 6 6 5 5 6 7 7 7 8 8 8 8 8 8 8 7 8 8 7 7 7 7 7 7 7 8 7 6 5 5 5 5 5 4 5 6 6 6 5 4 3 3 3 3 4 5 6 7 7
6 6 6 6 7 7 8 8 8 9 9 8 8 8 8 8 8 8 7 6 5 5 5 6 6 6 7 8 8 8 8 7 8 8 8 8 8 8 8 8 8 8 8 7 7 7 7 6 6 6 5 5 5 5 5 5 6 6 5 3 3 3 3 3 4 6 7 7 8
7 7 7 7 7 7 7 7 7 7 8 8 8 8 8 8 7 7 6 5 5 6 6 6 7 7 8 8 8 8 7 7 7 7 7 8 8 8 9 8 9 9 8 8 7 6 6 6 6 6 6 4 4 4 5 6 7 7 7 5 5 5 5 4 4 5 6 7 8
7 7 7 7 7 7 7 7 7 6 7 7 7 7 7 7 7 7 6 6 6 7 7 6 7 8 8 7 7 7 7 6 7 7 7 8 8 8 8 8 8 8 8 8 6 6 6 6 7 7 6 5 4 4 5 6 7 8 8 7 7 7 7 6 5 5 5 5 6
7 7 7 7 7 7 7 7 6 6 6 7 7 7 7 7 7 7 7 7 7 7 6 6 7 7 7 7 7 6 6 6 7 7 7 8 8 8 8 8 8 8 7 7 6 6 6 7 7 7 7 6 5 5 6 7 8 8 8 8 7 7 8 8 6 5 4 4 5
7 7 7 6 7 7 7 7 6 6 6 7 7 6 6 6 6 7 7 7 7 6 5 5 5 6 7 7 6 6 6 6 6 7 7 7 7 7 7 7 7 7 7 6 6 7 7 7 8 8 8 7 6 6 6 7 8 8 8 8 8 8 8 7 6 5 5 5 5
5 5 5 6 6 6 6 6 5 5 6 6 6 6 5 5 6 6 6 6 6 5 5 5 5 5 6 6 6 6 6 6 6 7 7 7 7 7 7 7 7 7 7 7 7 7 8 8 8 8 8 8 7 7 7 7 8 8 8 8 8 8 7 6 6 6 6 7 7
4 4 4 5 6 6 6 6 5 5 5 5 4 4 5 5 5 5 6 6 5 4 4 5 5 5 4 5 5 5 5 6 6 6 7 7 7 7 7 7 7 7 7 8 7 8 8 8 8 8 8 7 7 6 6 7 7 7 7 7 7 7 7 6 6 7 7 8 8
4 4 4 5 6 6 6 5 4 4 4 4 4 4 4 4 4 4 5 6 5 5 5 5 5 4 4 4 4 4 5 5 6 6 7 7 7 7 7 7 6 6 6 7 7 7 6 6 6 6 6 7 6 6 6 6 6 6 6 6 7 7 7 7 8 8 8 9 9
3 4 4 5 6 6 5 5 4 4 3 3 3 3 3 3 4 4 4 4 5 5 5 5 4 3 3 3 3 4 4 5 5 6 6 6 6 6 6 6 5 5 5 5 6 6 5 5 5 5 5 5 5 5 6 6 6 6 7 7 7 8 8 8 9 9 9 9 9
4 4 4 4 5 5 5 4 4 3 3 3 3 3 3 3 4 4 4 3 4 5 5 4 3 3 3 3 3 3 4 5 5 6 5 5 5 5 5 5 4 4 5 5 5 5 5 4 5 5 5 5 5 5 5 6 6 7 7 8 8 8 8 8 9 8 8 9 9
4 4 4 4 4 4 4 4 3 3 3 3 3 3 3 3 3 3 4 3 3 3 4 4 3 3 3 3 3 3 3 3 4 4 4 4 4 4 4 4 4 4 4 5 5 5 5 5 5 5 5 5 5 5 6 6 7 7 7 7 8 8 8 8 8 8 8 8 8
3 3 3 3 3 3 3 3 3 4 4 4 4 4 3 3 3 3 3 3 3 4 4 4 4 3 3 3 3 3 2 1 2 2 2 2 3 3 3 3 3 3 4 4 4 4 5 5 5 5 5 5 6 6 6 7 7 7 7 6 6 6 6 6 7 7 7 8 7
3 3 3 3 4 4 4 4 4 4 5 4 4 4 4 4 4 3 3 3 3 4 3 3 3 3 3 3 3 2 1 1 1 1 1 1 1 1 2 3 3 4 4 4 4 4 4 4 5 5 6 6 7 7 7 7 7 7 6 6 5 5 5 5 6 6 7 7 7
3 4 4 4 4 5 5 5 5 5 5 4 4 4 4 4 4 4 4 4 4 4 4 3 3 3 2 2 2 2 2 2 2 2 2 2 2 2 2 3 3 4 4 4 4 4 4 4 4 5 5 6 7 7 7 7 7 6 6 6 5 5 4 4 5 5 6 6 6
4 4 4 4 4 5 5 5 5 5 5 4 4 4 4 4 4 4 5 5 5 5 4 4 3 3 3 4 4 3 3 3 2 2 2 3 3 3 3 3 3 3 3 4 5 5 5 5 4 4 5 5 5 6 6 6 6 6 6 6 5 4 4 4 4 4 4 5 4
5 5 5 4 4 5 5 5 6 6 5 4 4 4 4 4 4 4 4 5 5 5 4 4 3 3 4 4 4 4 4 3 3 2 2 3 3 3 3 2 2 2 2 3 6 8 8 7 5 5 4 4 4 4 4 4 4 5 5 5 5 4 4 3 3 3 3 4 3
5 5 5 5 5 5 6 6 6 6 5 4 5 5 5 4 4 5 5 5 4 4 4 4 3 3 4 4 4 4 4 3 3 3 3 3 3 3 2 2 1 1 2 4 7 9 9 9 8 7 5 4 4 3 3 3 3 3 3 4 4 4 4 3 3 3 3 3 2
5 5 5 5 7 7 6 5 5 5 5 5 5 5 5 4 5 5 5 5 4 4 4 4 3 3 3 3 4 4 3 2 2 2 3 3 3 2 2 1 1 1 2 5 7 8 9 9 9 8 7 4 4 4 3 2 2 2 2 2 3 3 3 3 3 3 2 2 2
5 5 6 7 7 7 6 5 6 6 6 5 5 4 4 5 5 5 5 4 4 3 3 3 3 2 3 3 3 3 3 2 2 2 3 3 3 2 2 1 0 1 2 5 6 7 8 9 9 9 8 6 4 3 3 3 2 2 2 2 2 2 2 2 2 2 2 2 2
5 6 7 8 7 6 6 6 6 6 5 4 4 5 5 5 5 5 4 4 3 3 3 2 2 2 3 3 3 3 3 3 2 2 3 3 2 2 1 1 1 1 2 4 5 6 7 8 8 8 8 8 5 3 3 3 2 2 2 2 2 2 2 2 2 2 2 2 2
6 7 8 8 7 6 5 5 5 4 4 4 5 6 6 6 5 5 4 4 3 3 2 1 2 3 3 3 3 3 3 3 3 3 3 3 2 2 2 2 2 2 2 3 4 5 6 7 7 8 7 8 6 4 3 3 3 2 2 2 2 3 3 3 3 3 3 3 3
6 7 8 8 7 6 5 4 4 4 4 5 6 6 6 5 5 4 3 3 2 2 2 3 4 4 3 3 3 3 3 3 3 3 3 3 2 2 2 2 2 2 3 3 4 5 5 6 6 7 7 7 6 5 3 3 3 3 3 3 3 3 3 3 3 3 3 3 3
7 7 8 8 7 5 4 4 4 4 5 6 6 6 5 4 3 2 2 2 2 2 3 3 4 4 3 3 3 3 3 3 3 3 3 3 3 2 2 2 3 3 3 4 4 4 5 5 5 6 6 5 5 5 4 3 3 3 3 3 3 3 3 3 3 4 4 4 4
7 7 8 8 6 5 4 4 4 5 6 6 6 6 5 4 3 2 2 2 2 3 3 3 3 3 3 2 2 3 3 3 3 3 3 3 3 3 3 3 3 3 4 4 4 5 5 5 4 5 5 3 4 5 4 3 3 3 2 3 3 3 4 4 4 4 5 5 4
7 8 8 7 6 5 4 4 4 5 6 6 5 4 4 3 3 3 3 2 2 2 2 2 2 2 2 2 2 2 3 3 3 3 3 3 3 3 3 3 3 4 5 5 5 5 5 5 5 5 5 3 2 4 4 3 3 2 3 3 3 4 4 4 5 5 5 5 4
7 8 8 7 6 5 5 5 5 6 6 6 5 4 4 3 3 3 2 2 2 2 2 2 2 2 2 2 3 3 3 4 4 4 4 4 3 3 4 4 4 6 7 6 6 6 6 6 6 6 5 4 3 3 3 3 2 2 3 3 3 3 4 4 4 4 4 4 4
6 7 8 6 6 5 5 5 6 6 6 6 5 4 3 3 2 2 2 2 2 2 2 2 2 3 3 4 4 5 4 4 4 5 5 5 5 4 4 5 5 6 8 7 7 7 7 7 7 6 5 4 2 2 2 2 1 1 1 1 2 2 2 2 2 2 3 3 3
5 7 7 7 6 5 5 5 6 6 6 5 4 3 3 3 2 2 2 2 3 3 2 2 3 4 5 5 5 5 5 4 5 5 5 5 5 5 4 5 5 6 7 7 7 7 7 7 7 7 5 3 2 2 2 2 1 1 1 2 2 3 3 3 3 3 3 3 4
4 6 7 7 6 6 5 6 6 6 5 4 3 2 2 2 2 2 2 3 3 3 3 3 4 4 4 4 5 5 6 5 6 6 6 5 5 5 5 5 5 6 6 8 9 9 8 9 9 9 8 4 3 3 3 3 3 3 3 3 4 4 4 4 4 4 4 4 6
4 5 6 7 7 6 6 6 6 5 4 3 3 2 2 2 2 2 3 3 3 3 4 4 4 4 4 5 6 7 7 7 7 7 6 5 6 6 7 7 6 6 7 10 11 12 12 12 13 13 11 7 5 4 4 4 4 4 4 4 4 4 4 4 4 4 4 5 8
4 5 6 7 7 7 7 7 6 4 3 3 3 3 3 2 3 3 3 3 4 4 5 5 5 5 6 7 8 9 9 9 8 8 8 7 8 9 10 8 7 7 9 12 14 14 14 14 15 15 12 8 6 5 4 4 4 4 5 4 4 4 4 4 4 4 4 5 7
5 6 7 7 7 7 8 8 6 4 4 4 3 3 2 2 3 3 4 5 5 5 5 6 6 7 8 8 9 9 10 10 9 9 9 9 9 10 10 8 8 8 9 12 14 15 15 15 15 14 12 8 6 5 4 4 4 4 4 4 4 4 4 4 4 4 5 5 5
Wind_Direction
180 178 174 169 167 168 168 169 165 163 164 167 171 172 172 173 178 182 185 187 192 194 196 196 195 192 186 179 183 190 196 200 201 202 203 203 205 204 203 202 201 199 198 197 189 186 186 187 185 187 193 199 199 200 198 191 184 186 192 200 205 203 196 194 201 201 198 199 199
177 172 166 161 158 155 153 155 155 157 162 168 169 170 171 174 179 183 187 191 195 195 195 194 192 187 183 182 185 190 195 199 202 204 206 206 207 205 202 202 200 198 196 192 186 185 186 186 184 187 193 199 198 200 200 191 181 184 194 203 204 199 193 197 202 198 192 192 190
173 166 159 154 152 151 151 155 156 159 162 166 167 169 172 177 181 184 187 192 192 192 191 192 190 186 183 183 187 192 195 199 201 204 207 209 208 205 203 201 200 198 195 192 189 189 189 187 188 189 191 194 198 202 202 193 183 187 196 205 202 194 191 199 195 186 178 181 180
168 163 158 156 155 156 159 161 161 161 163 165 166 169 174 180 181 183 184 183 184 188 192 192 189 187 185 184 189 194 198 200 200 203 207 211 208 206 203 200 198 197 196 193 192 192 190 187 191 193 193 192 198 203 204 192 187 191 200 204 196 191 191 196 183 172 168 174 177
169 166 163 160 160 161 162 161 162 164 165 164 165 171 178 181 179 176 176 179 188 193 194 191 188 187 186 185 189 193 198 200 200 203 207 210 208 204 201 198 198 198 197 195 194 192 190 186 193 197 197 195 200 205 202 185 186 192 200 199 194 191 189 188 176 166 164 168 171
171 168 163 159 159 159 160 160 162 163 164 163 167 173 179 182 178 177 181 188 193 192 189 185 185 184 183 183 188 192 196 200 202 203 205 208 206 202 198 199 199 199 198 196 195 192 189 187 194 201 202 200 207 207 197 177 183 190 197 197 197 191 186 186 175 167 164 169 172
169 166 162 158 159 159 160 161 161 161 161 163 170 176 181 183 181 183 186 189 187 185 183 184 185 184 182 183 188 192 196 200 203 203 202 205 202 199 197 199 198 197 196 195 193 191 190 189 196 203 206 205 208 202 190 175 182 189 195 200 198 190 184 185 173 166 167 174 178
164 163 161 159 160 160 161 162 161 161 164 171 178 181 182 182 182 183 185 184 184 184 184 186 186 185 184 184 188 192 195 197 202 203 203 202 200 198 197 195 195 196 196 194 192 192 193 193 200 204 205 204 205 199 188 179 184 191 197 201 197 190 183 180 171 169 172 178 182
162 161 159 157 161 163 164 165 165 166 171 178 183 183 183 181 181 181 183 187 187 185 183 186 186 184 183 184 189 192 195 197 201 203 203 201 198 197 196 194 195 197 198 194 193 193 193 196 204 208 207 203 203 197 186 179 184 191 199 201 195 190 184 173 169 170 174 178 186
163 162 159 159 164 166 166 166 168 170 173 178 182 182 181 181 181 183 186 189 183 181 182 186 183 182 184 188 192 194 196 197 199 201 202 201 199 198 198 198 198 200 200 198 195 193 194 198 207 211 211 205 200 190 178 172 178 186 194 199 192 192 192 187 175 175 178 184 191
167 166 165 166 168 167 165 166 170 173 175 177 179 180 181 183 184 186 186 180 175 181 187 186 181 183 187 193 195 197 197 198 199 199 200 202 202 202 202 203 202 203 203 200 195 193 196 203 210 213 212 205 195 180 168 167 175 184 191 195 189 190 194 201 190 186 186 189 194
171 170 169 168 166 164 164 167 172 176 177 177 177 179 182 185 186 184 180 174 179 186 190 185 182 185 191 196 198 198 197 196 196 197 199 203 205 205 205 206 206 206 205 201 196 195 201 208 212 212 210 202 191 176 168 171 180 187 193 195 189 190 195 202 200 198 197 195 197
171 170 168 164 161 161 164 169 173 177 178 179 179 181 184 187 184 181 177 178 185 189 188 183 183 187 193 198 197 196 195 194 194 197 201 204 205 206 207 209 209 208 207 203 197 198 204 210 212 211 208 201 195 183 176 177 185 192 196 197 193 195 198 200 198 198 199 197 202
166 165 163 158 157 160 165 171 175 178 180 181 182 182 183 184 181 178 178 181 187 187 183 180 185 192 196 196 195 193 192 191 192 197 202 206 206 206 207 210 209 207 206 205 200 201 205 211 211 209 206 202 199 190 184 184 191 196 198 198 199 202 203 200 194 191 192 196 203
156 155 153 150 155 160 167 172 176 178 178 181 181 180 178 177 176 176 177 182 184 181 177 178 188 194 196 193 191 189 188 188 192 198 204 209 208 208 208 209 207 206 206 206 204 205 207 211 210 209 206 203 200 194 189 191 197 200 201 201 203 205 206 202 192 189 190 195 200
139 139 140 144 154 160 167 173 174 174 174 177 175 172 171 171 171 172 173 178 178 175 174 181 188 191 192 189 185 183 183 187 193 199 206 211 210 210 210 209 207 205 206 206 207 208 210 211 210 208 205 203 200 195 193 195 200 202 203 203 204 207 208 205 196 194 196 198 200
128 131 137 145 154 161 166 171 167 165 165 167 163 163 164 164 165 168 172 173 171 173 179 187 187 184 182 185 180 178 180 187 195 202 208 212 211 211 211 211 207 204 204 206 209 210 211 211 210 207 203 200 196 193 192 193 198 202 204 205 206 209 210 207 200 198 199 200 202
128 133 139 147 155 160 162 162 156 153 152 153 152 154 155 154 159 165 169 168 168 173 179 186 180 173 170 177 179 180 183 189 199 205 209 212 211 211 211 211 205 200 199 203 206 208 208 205 204 202 199 195 192 188 188 190 197 202 205 207 209 210 209 206 201 198 198 200 203
129 133 138 145 151 152 150 145 139 135 133 133 135 135 137 142 151 155 159 161 165 168 170 170 163 159 161 169 176 183 187 192 200 205 210 211 210 210 210 209 199 191 189 194 199 200 198 195 194 194 194 192 190 189 190 193 200 204 207 209 209 209 207 203 199 197 197 199 203
121 126 130 135 134 132 129 125 120 116 112 110 114 117 120 124 134 142 148 152 149 148 149 150 151 153 158 163 173 184 192 193 196 203 208 208 208 209 209 202 186 178 178 184 189 190 189 188 187 188 189 189 192 194 197 199 203 206 208 209 209 207 204 200 197 197 198 201 204
103 107 110 110 111 112 110 107 105 102 100 99 102 104 106 105 110 119 126 125 120 122 130 141 149 155 160 163 171 180 186 174 173 187 199 202 203 202 193 175 164 162 166 174 180 181 182 182 182 183 185 189 194 197 199 201 204 206 207 207 207 204 201 198 197 198 201 205 207
87 87 90 93 98 100 101 99 97 95 93 92 91 91 91 89 88 87 89 90 98 107 116 127 137 145 151 155 160 158 139 100 91 98 136 172 171 160 143 136 143 150 159 170 173 174 174 176 178 180 184 190 196 199 199 199 201 202 203 204 203 201 199 198 199 201 205 208 209
84 83 85 89 92 94 94 94 91 89 87 84 81 81 81 80 76 71 68 70 78 84 89 91 95 100 106 112 118 114 104 86 70 60 59 74 90 96 102 117 135 151 163 171 169 168 170 174 178 181 185 191 196 199 199 198 198 198 199 200 201 201 201 202 204 207 210 213 215
87 87 86 86 86 88 89 88 86 84 82 79 78 78 78 77 74 70 67 66 67 68 70 71 72 75 77 79 85 93 98 98 83 66 57 62 74 82 89 103 130 152 165 170 171 172 174 175 180 184 188 191 195 196 196 195 195 195 195 197 199 202 205 210 211 213 216 220 223
89 88 86 84 85 83 82 82 84 84 83 79 76 76 75 75 75 73 70 64 61 61 63 67 67 69 71 73 75 79 87 98 102 96 83 74 74 77 83 97 123 147 165 176 185 188 188 186 183 182 185 189 191 191 191 192 192 192 193 194 196 200 208 218 223 224 223 223 227
88 85 82 82 82 80 78 79 83 84 82 78 74 73 73 73 74 74 73 69 62 60 60 64 65 68 71 73 72 72 74 84 101 110 111 103 92 87 88 101 125 148 176 191 198 200 202 201 195 188 182 180 182 184 187 193 191 189 189 193 194 198 206 220 228 231 229 223 220
88 84 82 80 78 77 76 78 79 79 78 77 76 76 76 74 74 75 75 73 68 63 59 57 60 64 68 69 71 72 71 71 88 104 114 118 119 120 123 131 145 167 196 204 209 212 214 214 209 200 187 171 175 179 182 187 182 179 180 187 192 199 206 217 225 229 229 224 215
89 87 83 79 76 74 72 73 75 76 77 79 80 80 79 76 75 76 77 76 71 64 56 50 49 52 58 60 66 69 70 68 75 88 100 108 117 125 131 136 138 207 215 215 220 224 225 225 223 211 195 173 170 170 172 170 168 166 169 177 186 197 207 217 224 227 231 235 233
91 88 84 81 78 74 70 70 74 77 80 82 83 82 79 77 76 77 76 72 65 59 54 45 39 46 53 57 59 59 57 53 58 72 83 90 91 90 83 67 25 290 243 230 233 235 237 236 236 225 206 178 166 157 156 158 160 162 168 176 182 192 203 215 224 231 236 242 249
90 90 88 85 80 75 71 72 76 79 82 84 84 82 80 77 73 71 69 66 62 57 54 52 54 58 60 58 57 54 49 40 41 54 71 84 81 68 49 39 16 334 285 256 249 248 248 248 247 240 222 186 161 149 148 154 158 166 175 186 190 197 203 214 222 231 238 245 253
90 91 90 87 82 78 75 75 76 78 80 81 82 81 79 75 70 66 63 65 62 57 53 58 63 65 62 53 53 52 49 40 38 45 57 73 75 63 43 27 9 343 313 286 273 267 264 262 258 252 237 196 161 149 153 159 166 175 184 193 199 203 207 212 221 229 235 241 247
90 91 91 88 85 82 79 76 76 77 77 78 78 77 75 71 65 56 51 58 61 57 54 59 67 67 61 49 49 49 48 45 44 46 52 62 63 56 40 23 4 342 322 305 294 287 284 281 275 268 255 214 161 153 158 164 172 179 189 199 205 208 212 216 224 229 233 235 237
90 90 90 90 89 86 82 78 78 78 76 74 73 72 72 68 61 50 44 46 53 56 59 64 71 72 70 61 58 56 53 52 50 49 52 58 61 55 40 19 356 336 325 316 310 308 307 306 303 295 285 259 150 147 156 162 170 179 193 207 214 215 217 220 227 233 237 239 239
91 90 90 91 90 88 84 80 80 79 76 72 67 65 65 66 60 54 47 47 56 60 62 63 70 74 75 73 73 69 63 55 49 46 46 51 57 53 38 14 352 340 336 331 328 327 327 327 327 320 318 337 104 129 145 157 169 184 202 216 222 224 224 226 231 239 246 251 253
96 95 93 91 90 89 86 83 79 77 75 72 65 60 57 58 59 55 52 56 68 67 61 55 62 65 62 56 55 55 53 47 41 37 36 38 45 42 32 13 356 349 347 347 343 341 340 340 338 336 341 14 74 108 130 148 168 191 209 222 232 237 239 240 247 255 263 269 272
99 101 100 96 92 88 86 83 77 73 70 68 64 58 53 50 46 38 35 51 63 63 56 44 46 46 44 40 38 38 39 40 38 35 33 33 36 35 27 13 357 352 353 356 355 353 351 350 347 349 358 28 62 89 107 125 147 180 220 250 268 278 286 296 303 309 311 309 302
99 104 104 100 93 87 83 79 76 73 70 67 62 57 54 51 38 19 14 41 60 61 53 40 40 40 40 41 41 39 38 43 48 46 43 40 42 40 32 18 1 353 353 4 11 12 10 8 5 10 20 43 49 54 57 61 54 39 20 0 348 350 356 3 359 354 349 343 333
95 102 104 101 94 87 80 76 76 77 76 71 64 55 51 54 40 19 15 34 58 63 57 48 45 45 48 54 55 50 46 46 53 55 54 49 52 53 48 34 14 0 1 19 32 35 33 32 33 36 41 51 42 36 36 38 36 32 25 18 11 9 12 16 11 6 359 351 349
87 95 99 100 96 88 80 74 73 76 78 76 65 53 46 48 40 28 24 33 53 62 63 60 57 59 67 72 66 57 49 43 46 51 54 53 56 58 57 48 27 13 15 31 42 45 45 45 49 51 53 53 46 42 41 43 41 35 29 22 14 9 6 6 6 3 359 353 356
79 85 89 93 91 86 80 74 69 66 66 66 60 51 47 50 46 41 39 46 58 66 72 74 72 74 75 75 71 63 54 46 42 44 48 50 53 54 54 50 35 22 22 31 41 44 45 46 52 56 59 58 51 49 50 50 47 39 31 23 17 10 3 357 358 359 357 352 355
72 76 79 81 82 83 82 79 73 67 61 58 56 53 52 58 53 52 55 61 65 70 75 77 74 73 73 74 72 68 62 54 46 44 45 48 49 48 47 44 36 27 23 27 36 39 41 41 46 52 58 64 56 52 52 54 49 39 28 17 16 13 5 354 353 353 352 349 347